BAW50G EGLL-KBOS

Flight info

Callsign BAW50G
Flight time N/A
Altitude 36000
Route CPT L9 BUCGO DCT FELCA DCT OFSOX DCT BANBA DCT TOBOR/M083F360 NATC ELSIR/N0468F380 DCT TUSKY DCT EURRO OOSHN5
Aircraft B77W/H-SDE1E2E3FGHIJ2J3J4J5M1RWXY/LB1D1

Departure

Time 2026-05-06 09:25
Airport London Heathrow Airport (EGLL)

Arrival

Time N/A
Airport Boston Logan International Airport (KBOS)
Time Latitude Longitude Altitude Speed Heading
2026-05-06 08:37 51.47133 -0.48017 92 ft 0 kts 270°
2026-05-06 09:10 51.47133 -0.48013 91 ft 1 kts 270°
2026-05-06 09:10 51.47133 -0.47985 95 ft 3 kts 270°
2026-05-06 09:10 51.47133 -0.47953 95 ft 3 kts 270°
2026-05-06 09:10 51.47133 -0.47923 95 ft 3 kts 258°
2026-05-06 09:11 51.47140 -0.47894 92 ft 3 kts 227°
2026-05-06 09:11 51.47155 -0.47877 94 ft 3 kts 193°
2026-05-06 09:11 51.47174 -0.47873 90 ft 2 kts 180°
2026-05-06 09:11 51.47185 -0.47873 91 ft 1 kts 180°
2026-05-06 09:12 51.47187 -0.47873 91 ft 0 kts 180°
2026-05-06 09:16 51.47181 -0.47873 92 ft 3 kts 180°
2026-05-06 09:16 51.47153 -0.47874 94 ft 4 kts 180°
2026-05-06 09:16 51.47122 -0.47873 92 ft 4 kts 179°
2026-05-06 09:16 51.47091 -0.47873 91 ft 4 kts 179°
2026-05-06 09:17 51.47050 -0.47872 92 ft 9 kts 179°
2026-05-06 09:17 51.46972 -0.47872 92 ft 12 kts 180°
2026-05-06 09:17 51.46890 -0.47872 91 ft 12 kts 178°
2026-05-06 09:17 51.46808 -0.47871 92 ft 12 kts 180°
2026-05-06 09:18 51.46726 -0.47871 91 ft 10 kts 180°
2026-05-06 09:18 51.46681 -0.47873 91 ft 5 kts 192°
2026-05-06 09:18 51.46660 -0.47918 95 ft 5 kts 248°
2026-05-06 09:18 51.46654 -0.47977 94 ft 6 kts 265°
2026-05-06 09:19 51.46653 -0.48063 94 ft 11 kts 269°
2026-05-06 09:19 51.46653 -0.48230 93 ft 17 kts 269°
2026-05-06 09:19 51.46652 -0.48420 92 ft 17 kts 269°
2026-05-06 09:19 51.46651 -0.48602 92 ft 13 kts 270°
2026-05-06 09:20 51.46643 -0.48714 95 ft 9 kts 245°
2026-05-06 09:20 51.46591 -0.48775 95 ft 10 kts 202°
2026-05-06 09:20 51.46527 -0.48782 96 ft 8 kts 166°
2026-05-06 09:20 51.46493 -0.48743 95 ft 6 kts 127°
2026-05-06 09:21 51.46478 -0.48656 96 ft 11 kts 92°
2026-05-06 09:21 51.46478 -0.48595 95 ft 0 kts 89°
2026-05-06 09:24 51.46479 -0.48410 94 ft 45 kts 88°
2026-05-06 09:24 51.46482 -0.47482 91 ft 119 kts 90°
2026-05-06 09:24 51.46500 -0.45818 95 ft 176 kts 88°
2026-05-06 09:25 51.46469 -0.43774 509 ft 189 kts 90°
2026-05-06 09:25 51.46347 -0.41610 1076 ft 197 kts 99°
2026-05-06 09:25 51.45731 -0.39689 1924 ft 193 kts 134°
2026-05-06 09:25 51.44545 -0.38621 2524 ft 204 kts 168°
2026-05-06 09:26 51.43128 -0.38763 3091 ft 209 kts 204°
2026-05-06 09:26 51.41929 -0.40083 3579 ft 211 kts 230°
2026-05-06 09:26 51.40889 -0.41784 4134 ft 220 kts 226°
2026-05-06 09:26 51.39700 -0.43430 4756 ft 229 kts 225°
2026-05-06 09:27 51.38498 -0.45099 5380 ft 240 kts 226°
2026-05-06 09:27 51.37183 -0.46876 5595 ft 270 kts 222°
2026-05-06 09:27 51.35669 -0.48754 6048 ft 281 kts 221°
2026-05-06 09:27 51.34102 -0.50668 5994 ft 282 kts 221°
2026-05-06 09:28 51.32779 -0.52873 6001 ft 272 kts 244°
2026-05-06 09:28 51.32239 -0.55690 5988 ft 263 kts 273°
2026-05-06 09:28 51.32548 -0.58495 6291 ft 251 kts 290°
2026-05-06 09:28 51.33087 -0.61186 7099 ft 258 kts 290°
2026-05-06 09:29 51.33649 -0.63976 7854 ft 268 kts 290°
2026-05-06 09:29 51.34234 -0.66834 8719 ft 272 kts 291°
2026-05-06 09:29 51.34834 -0.69733 9602 ft 278 kts 290°
2026-05-06 09:29 51.35462 -0.72696 10377 ft 283 kts 291°
2026-05-06 09:30 51.36121 -0.75792 10764 ft 307 kts 291°
2026-05-06 09:30 51.36843 -0.79167 10957 ft 335 kts 291°
2026-05-06 09:30 51.37635 -0.82822 11229 ft 359 kts 290°
2026-05-06 09:30 51.38483 -0.86657 11847 ft 371 kts 290°
2026-05-06 09:31 51.39356 -0.90567 12243 ft 374 kts 290°
2026-05-06 09:31 51.40232 -0.94487 12772 ft 377 kts 290°
2026-05-06 09:31 51.41124 -0.98445 13814 ft 376 kts 292°
2026-05-06 09:31 51.42280 -1.02218 14720 ft 378 kts 303°
2026-05-06 09:32 51.43801 -1.05655 15643 ft 380 kts 306°
2026-05-06 09:32 51.45384 -1.09093 16401 ft 386 kts 306°
2026-05-06 09:32 51.46961 -1.12594 17276 ft 390 kts 305°
2026-05-06 09:32 51.48519 -1.16138 18004 ft 397 kts 304°
2026-05-06 09:33 51.50127 -1.19878 18626 ft 406 kts 304°
2026-05-06 09:33 51.51698 -1.23590 19365 ft 408 kts 303°
2026-05-06 09:33 51.53294 -1.27391 20141 ft 411 kts 303°
2026-05-06 09:33 51.54899 -1.31228 20868 ft 416 kts 303°
2026-05-06 09:34 51.56518 -1.35109 21530 ft 421 kts 303°
2026-05-06 09:34 51.58158 -1.39045 22262 ft 424 kts 303°
2026-05-06 09:34 51.59802 -1.42995 23011 ft 426 kts 303°
2026-05-06 09:34 51.61460 -1.46982 23634 ft 431 kts 303°
2026-05-06 09:35 51.63132 -1.51019 24141 ft 436 kts 302°
2026-05-06 09:35 51.64820 -1.55101 24676 ft 439 kts 303°
2026-05-06 09:35 51.66521 -1.59210 25252 ft 442 kts 303°
2026-05-06 09:35 51.68209 -1.63358 25799 ft 444 kts 300°
2026-05-06 09:36 51.69592 -1.67829 26257 ft 449 kts 291°
2026-05-06 09:36 51.70568 -1.72617 26766 ft 451 kts 284°
2026-05-06 09:36 51.71017 -1.75901 27040 ft 454 kts 278°
2026-05-06 09:36 51.71361 -1.80971 27585 ft 456 kts 275°
2026-05-06 09:37 51.71672 -1.86078 28019 ft 460 kts 276°
2026-05-06 09:37 51.72019 -1.91226 28441 ft 464 kts 277°
2026-05-06 09:37 51.72389 -1.96419 28825 ft 467 kts 277°
2026-05-06 09:37 51.72765 -2.01633 29285 ft 469 kts 277°
2026-05-06 09:38 51.73138 -2.06874 29743 ft 470 kts 277°
2026-05-06 09:38 51.73504 -2.12123 30227 ft 470 kts 277°
2026-05-06 09:38 51.73867 -2.17355 30740 ft 468 kts 277°
2026-05-06 09:38 51.74229 -2.22567 31227 ft 466 kts 276°
2026-05-06 09:39 51.74587 -2.27752 31710 ft 465 kts 276°
2026-05-06 09:39 51.74942 -2.32919 32167 ft 463 kts 276°
2026-05-06 09:39 51.75295 -2.38089 32590 ft 463 kts 276°
2026-05-06 09:39 51.75646 -2.43249 33033 ft 461 kts 276°
2026-05-06 09:40 51.75991 -2.48367 33605 ft 457 kts 276°
2026-05-06 09:40 51.76331 -2.53452 34069 ft 455 kts 276°
2026-05-06 09:40 51.76971 -2.63633 34591 ft 457 kts 276°
2026-05-06 09:41 51.77295 -2.68737 34843 ft 458 kts 276°
2026-05-06 09:41 51.77626 -2.73873 35118 ft 458 kts 276°
2026-05-06 09:41 51.77956 -2.78993 35372 ft 459 kts 275°
2026-05-06 09:41 51.78286 -2.84138 35545 ft 461 kts 275°
2026-05-06 09:42 51.78613 -2.89295 35736 ft 462 kts 275°
2026-05-06 09:42 51.78933 -2.94383 35918 ft 461 kts 275°
2026-05-06 09:42 51.79573 -3.04682 36018 ft 458 kts 275°
2026-05-06 09:43 51.80350 -3.14868 36034 ft 456 kts 279°
2026-05-06 09:43 51.81478 -3.24945 36041 ft 455 kts 280°
2026-05-06 09:44 51.82640 -3.35013 36033 ft 456 kts 279°
2026-05-06 09:44 51.83760 -3.45098 36031 ft 456 kts 279°
2026-05-06 09:45 51.84850 -3.55201 36027 ft 456 kts 279°
2026-05-06 09:45 51.85925 -3.65320 36031 ft 456 kts 279°
2026-05-06 09:46 51.86984 -3.75380 36025 ft 456 kts 279°
2026-05-06 09:46 51.88042 -3.85503 36024 ft 456 kts 279°
2026-05-06 09:47 51.89091 -3.95627 36026 ft 456 kts 279°
2026-05-06 09:47 51.90132 -4.05751 36015 ft 455 kts 279°
2026-05-06 09:48 51.91163 -4.15868 36020 ft 455 kts 279°
2026-05-06 09:48 51.92182 -4.25970 36023 ft 454 kts 279°
2026-05-06 09:49 51.93193 -4.36071 36023 ft 454 kts 278°
2026-05-06 09:49 51.94194 -4.46175 36026 ft 454 kts 278°
2026-05-06 09:50 51.95187 -4.56283 36025 ft 454 kts 278°
2026-05-06 09:50 51.96165 -4.66327 36028 ft 454 kts 278°
2026-05-06 09:51 51.97140 -4.76433 36027 ft 454 kts 278°
2026-05-06 09:51 51.98105 -4.86538 36028 ft 453 kts 278°
2026-05-06 09:52 51.99063 -4.96654 36030 ft 454 kts 278°
2026-05-06 09:52 52.00012 -5.06777 36034 ft 453 kts 278°
2026-05-06 09:53 52.00952 -5.16907 36031 ft 454 kts 278°
2026-05-06 09:53 52.01886 -5.27055 36033 ft 454 kts 278°
2026-05-06 09:54 52.02809 -5.37193 36035 ft 454 kts 278°
2026-05-06 09:54 52.03718 -5.47277 36035 ft 454 kts 278°
2026-05-06 09:55 52.04625 -5.57427 36036 ft 454 kts 278°
2026-05-06 09:55 52.05522 -5.67579 36038 ft 454 kts 278°
2026-05-06 09:56 52.06412 -5.77755 36041 ft 454 kts 278°
2026-05-06 09:56 52.07294 -5.87940 36041 ft 454 kts 278°
2026-05-06 09:57 52.08166 -5.98119 36044 ft 454 kts 278°
2026-05-06 09:57 52.09028 -6.08281 36043 ft 454 kts 278°
2026-05-06 09:58 52.09883 -6.18464 36043 ft 454 kts 278°
2026-05-06 09:58 52.10727 -6.28642 36044 ft 454 kts 277°
2026-05-06 09:59 52.11563 -6.38818 36057 ft 454 kts 277°
2026-05-06 09:59 52.12385 -6.48936 36042 ft 453 kts 277°
2026-05-06 10:00 52.13203 -6.59113 36047 ft 453 kts 277°
2026-05-06 10:00 52.14012 -6.69293 36046 ft 453 kts 277°
2026-05-06 10:01 52.14812 -6.79477 36048 ft 453 kts 277°
2026-05-06 10:01 52.15602 -6.89652 36048 ft 453 kts 277°
2026-05-06 10:02 52.16383 -6.99822 36048 ft 453 kts 277°
2026-05-06 10:02 52.17151 -7.09930 36050 ft 453 kts 277°
2026-05-06 10:03 52.17916 -7.20134 36050 ft 453 kts 277°
2026-05-06 10:03 52.18672 -7.30326 36047 ft 453 kts 277°
2026-05-06 10:04 52.19420 -7.40538 36049 ft 453 kts 277°
2026-05-06 10:04 52.20155 -7.50692 36047 ft 454 kts 277°
2026-05-06 10:05 52.20885 -7.60915 36051 ft 454 kts 277°
2026-05-06 10:05 52.21610 -7.71179 36047 ft 455 kts 277°
2026-05-06 10:06 52.22324 -7.81426 36046 ft 455 kts 277°
2026-05-06 10:06 52.23030 -7.91684 36039 ft 455 kts 277°
2026-05-06 10:07 52.23728 -8.01954 36039 ft 455 kts 277°
2026-05-06 10:07 52.24413 -8.12179 36048 ft 456 kts 277°
2026-05-06 10:08 52.25094 -8.22480 36051 ft 457 kts 277°
2026-05-06 10:08 52.25768 -8.32811 36050 ft 458 kts 277°
2026-05-06 10:09 52.26438 -8.43184 36005 ft 459 kts 277°
2026-05-06 10:09 52.27095 -8.53538 36043 ft 459 kts 277°
2026-05-06 10:10 52.27739 -8.63843 36051 ft 459 kts 277°
2026-05-06 10:10 52.28379 -8.74227 36054 ft 460 kts 277°
2026-05-06 10:11 52.29011 -8.84622 36051 ft 460 kts 277°
2026-05-06 10:11 52.29634 -8.95028 36041 ft 460 kts 277°
2026-05-06 10:12 52.30248 -9.05433 36055 ft 460 kts 277°
2026-05-06 10:12 52.30854 -9.15868 36053 ft 461 kts 276°
2026-05-06 10:13 52.31451 -9.26298 36052 ft 461 kts 276°
2026-05-06 10:13 52.32040 -9.36762 36053 ft 462 kts 276°
2026-05-06 10:14 52.32620 -9.47221 36036 ft 462 kts 276°
2026-05-06 10:14 52.33187 -9.57618 36047 ft 462 kts 276°
2026-05-06 10:15 52.33748 -9.68093 36056 ft 463 kts 276°
2026-05-06 10:15 52.34301 -9.78582 36049 ft 463 kts 276°
2026-05-06 10:16 52.34845 -9.89080 36055 ft 463 kts 276°
2026-05-06 10:16 52.35380 -9.99598 36050 ft 464 kts 276°
2026-05-06 10:17 52.35908 -10.10136 36060 ft 464 kts 276°
2026-05-06 10:17 52.36425 -10.20655 36060 ft 464 kts 276°
2026-05-06 10:18 52.36934 -10.31203 36060 ft 465 kts 276°
2026-05-06 10:18 52.37433 -10.41758 36058 ft 465 kts 276°
2026-05-06 10:19 52.37920 -10.52246 36057 ft 465 kts 276°
2026-05-06 10:19 52.38401 -10.62816 36060 ft 465 kts 276°
2026-05-06 10:20 52.38872 -10.73364 36060 ft 465 kts 276°
2026-05-06 10:20 52.39333 -10.83918 36060 ft 465 kts 276°
2026-05-06 10:21 52.39786 -10.94494 36060 ft 465 kts 276°
2026-05-06 10:21 52.40155 -11.03274 36050 ft 465 kts 276°
2026-05-06 10:22 52.40591 -11.13859 36070 ft 466 kts 276°
2026-05-06 10:22 52.41018 -11.24453 36061 ft 467 kts 276°
2026-05-06 10:23 52.41436 -11.35064 36064 ft 468 kts 276°
2026-05-06 10:23 52.41845 -11.45711 36062 ft 468 kts 276°
2026-05-06 10:24 52.42243 -11.56315 36065 ft 469 kts 276°
2026-05-06 10:24 52.42634 -11.66986 36071 ft 469 kts 276°
2026-05-06 10:25 52.43016 -11.77681 36068 ft 470 kts 276°
2026-05-06 10:25 52.43389 -11.88376 36064 ft 470 kts 276°
2026-05-06 10:26 52.43753 -11.99076 36067 ft 470 kts 276°
2026-05-06 10:26 52.44105 -12.09757 36059 ft 470 kts 276°
2026-05-06 10:27 52.44448 -12.20443 36071 ft 469 kts 276°
2026-05-06 10:27 52.44782 -12.31131 36064 ft 469 kts 276°
2026-05-06 10:28 52.45106 -12.41819 36070 ft 469 kts 276°
2026-05-06 10:28 52.45420 -12.52499 36053 ft 469 kts 276°
2026-05-06 10:29 52.45723 -12.63123 36065 ft 469 kts 276°
2026-05-06 10:29 52.46018 -12.73818 36069 ft 469 kts 276°
2026-05-06 10:30 52.46304 -12.84511 36072 ft 469 kts 276°
2026-05-06 10:30 52.46580 -12.95218 36070 ft 470 kts 275°
2026-05-06 10:31 52.46847 -13.05930 36060 ft 470 kts 276°
2026-05-06 10:31 52.47104 -13.16663 36072 ft 470 kts 275°
2026-05-06 10:32 52.47350 -13.27307 36072 ft 470 kts 275°
2026-05-06 10:32 52.47587 -13.38028 36074 ft 470 kts 275°
2026-05-06 10:33 52.47816 -13.48765 36074 ft 470 kts 275°
2026-05-06 10:33 52.48034 -13.59489 36054 ft 470 kts 275°
2026-05-06 10:34 52.48242 -13.70187 36069 ft 469 kts 275°
2026-05-06 10:34 52.48440 -13.80885 36070 ft 468 kts 275°
2026-05-06 10:35 52.48629 -13.91577 36074 ft 468 kts 275°
2026-05-06 10:35 52.48806 -14.02157 36077 ft 468 kts 275°
2026-05-06 10:36 52.48975 -14.12821 36062 ft 467 kts 275°
2026-05-06 10:36 52.49135 -14.23489 36070 ft 468 kts 275°
2026-05-06 10:37 52.49285 -14.34174 36080 ft 468 kts 275°
2026-05-06 10:37 52.49426 -14.44863 36078 ft 469 kts 275°
2026-05-06 10:38 52.49557 -14.55569 36077 ft 469 kts 275°
2026-05-06 10:38 52.49678 -14.66221 36065 ft 469 kts 275°
2026-05-06 10:39 52.49790 -14.76935 36073 ft 469 kts 274°
2026-05-06 10:39 52.49895 -14.87661 36072 ft 470 kts 274°
2026-05-06 10:40 52.50025 -14.98371 36069 ft 468 kts 277°
2026-05-06 10:40 52.50991 -15.08873 36082 ft 464 kts 285°
2026-05-06 10:41 52.52294 -15.19243 36060 ft 463 kts 284°
2026-05-06 10:41 52.54035 -15.29258 36069 ft 454 kts 301°
2026-05-06 10:42 52.55789 -15.33510 36071 ft 446 kts 313°
2026-05-06 10:42 52.57635 -15.37598 36064 ft 449 kts 300°
2026-05-06 10:42 52.58752 -15.42441 36078 ft 460 kts 284°
2026-05-06 10:42 52.59276 -15.47650 36088 ft 464 kts 282°
2026-05-06 10:43 52.60383 -15.58192 36078 ft 470 kts 283°
2026-05-06 10:44 52.62202 -15.74008 36058 ft 463 kts 284°
2026-05-06 10:44 52.63404 -15.84385 36073 ft 461 kts 284°
2026-05-06 10:45 52.64595 -15.94773 36072 ft 462 kts 284°
2026-05-06 10:45 52.65774 -16.05174 36082 ft 462 kts 283°
2026-05-06 10:46 52.66935 -16.15517 36072 ft 462 kts 283°
2026-05-06 10:46 52.68095 -16.25936 36049 ft 462 kts 283°
2026-05-06 10:47 52.69243 -16.36343 36069 ft 461 kts 283°
2026-05-06 10:47 52.70383 -16.46759 36070 ft 461 kts 283°
2026-05-06 10:48 52.71512 -16.57165 36066 ft 461 kts 283°
2026-05-06 10:48 52.72631 -16.67564 36071 ft 460 kts 283°
2026-05-06 10:49 52.73735 -16.77914 36065 ft 460 kts 283°
2026-05-06 10:49 52.74837 -16.88333 36061 ft 460 kts 282°
2026-05-06 10:50 52.75929 -16.98755 36071 ft 460 kts 282°
2026-05-06 10:50 52.77011 -17.09164 36075 ft 460 kts 282°
2026-05-06 10:51 52.78085 -17.19601 36070 ft 460 kts 282°
2026-05-06 10:51 52.79146 -17.29998 36066 ft 459 kts 282°
2026-05-06 10:52 52.80197 -17.40391 36047 ft 458 kts 282°
2026-05-06 10:52 52.81232 -17.50720 36071 ft 458 kts 282°
2026-05-06 10:53 52.82263 -17.61106 36072 ft 458 kts 282°
2026-05-06 10:53 52.83285 -17.71502 36063 ft 458 kts 282°
2026-05-06 10:54 52.84299 -17.81912 36058 ft 458 kts 281°
2026-05-06 10:54 52.85306 -17.92338 36071 ft 459 kts 281°
2026-05-06 10:55 52.86303 -18.02767 36072 ft 459 kts 281°
2026-05-06 10:55 52.87291 -18.13208 36072 ft 459 kts 281°
2026-05-06 10:56 52.88264 -18.23591 36066 ft 459 kts 281°
2026-05-06 10:56 52.89233 -18.34027 36066 ft 458 kts 281°
2026-05-06 10:57 52.90191 -18.44453 36070 ft 458 kts 281°
2026-05-06 10:57 52.91142 -18.54893 36057 ft 458 kts 280°
2026-05-06 10:58 52.92081 -18.65319 36067 ft 457 kts 280°
2026-05-06 10:58 52.93005 -18.75688 36071 ft 457 kts 280°
2026-05-06 10:59 52.93926 -18.86121 36068 ft 458 kts 280°
2026-05-06 10:59 52.94840 -18.96580 36069 ft 458 kts 280°
2026-05-06 11:00 52.95746 -19.07055 36075 ft 458 kts 279°
2026-05-06 11:00 52.96640 -19.17509 36066 ft 458 kts 279°
2026-05-06 11:01 52.97519 -19.27907 36073 ft 458 kts 279°
2026-05-06 11:01 52.98394 -19.38364 36068 ft 458 kts 279°
2026-05-06 11:02 52.99262 -19.48841 36069 ft 458 kts 279°
2026-05-06 11:02 53.00118 -19.59302 36072 ft 458 kts 279°
2026-05-06 11:03 53.00967 -19.69774 36066 ft 458 kts 278°
2026-05-06 11:03 53.01806 -19.80263 36073 ft 458 kts 278°
2026-05-06 11:04 53.02640 -19.90772 36070 ft 459 kts 278°
2026-05-06 11:04 53.03458 -20.01293 36074 ft 459 kts 277°
2026-05-06 11:05 53.03975 -20.11880 36089 ft 460 kts 274°
2026-05-06 11:05 53.04326 -20.22488 36065 ft 460 kts 274°
2026-05-06 11:06 53.04696 -20.33110 36071 ft 460 kts 274°
2026-05-06 11:06 53.05090 -20.43660 36071 ft 460 kts 274°
2026-05-06 11:07 53.05493 -20.54290 36071 ft 460 kts 274°
2026-05-06 11:07 53.05888 -20.64896 36072 ft 460 kts 274°
2026-05-06 11:08 53.06272 -20.75523 36072 ft 460 kts 274°
2026-05-06 11:08 53.06647 -20.86143 36068 ft 460 kts 273°
2026-05-06 11:09 53.07009 -20.96710 36076 ft 461 kts 273°
2026-05-06 11:09 53.07365 -21.07358 36069 ft 461 kts 273°
2026-05-06 11:10 53.07656 -21.16284 36068 ft 462 kts 273°
2026-05-06 11:10 53.07994 -21.26944 36077 ft 462 kts 273°
2026-05-06 11:11 53.08322 -21.37563 36079 ft 462 kts 272°
2026-05-06 11:11 53.08643 -21.48259 36075 ft 462 kts 272°
2026-05-06 11:12 53.08953 -21.58929 36072 ft 461 kts 272°
2026-05-06 11:12 53.09253 -21.69591 36074 ft 461 kts 272°
2026-05-06 11:13 53.09541 -21.80168 36074 ft 461 kts 272°
2026-05-06 11:13 53.09822 -21.90807 36074 ft 460 kts 272°
2026-05-06 11:14 53.10094 -22.01457 36082 ft 461 kts 272°
2026-05-06 11:14 53.10356 -22.12112 36080 ft 461 kts 272°
2026-05-06 11:15 53.10608 -22.22773 36077 ft 461 kts 271°
2026-05-06 11:15 53.10852 -22.33450 36079 ft 462 kts 271°
2026-05-06 11:16 53.11086 -22.44125 36089 ft 462 kts 271°
2026-05-06 11:16 53.11311 -22.54820 36086 ft 462 kts 271°
2026-05-06 11:17 53.11525 -22.65524 36084 ft 463 kts 271°
2026-05-06 11:17 53.11731 -22.76251 36081 ft 463 kts 271°
2026-05-06 11:18 53.11926 -22.86904 36084 ft 463 kts 271°
2026-05-06 11:18 53.12113 -22.97629 36084 ft 463 kts 271°
2026-05-06 11:19 53.12290 -23.08334 36088 ft 463 kts 270°
2026-05-06 11:19 53.12457 -23.19055 36088 ft 463 kts 270°
2026-05-06 11:20 53.12615 -23.29772 36088 ft 463 kts 270°
2026-05-06 11:20 53.12762 -23.40431 36092 ft 463 kts 270°
2026-05-06 11:21 53.12901 -23.51153 36083 ft 463 kts 270°
2026-05-06 11:21 53.13030 -23.61869 36086 ft 463 kts 269°
2026-05-06 11:22 53.13149 -23.72597 36104 ft 464 kts 269°
2026-05-06 11:22 53.13259 -23.83352 36091 ft 465 kts 269°
2026-05-06 11:23 53.13359 -23.94123 36090 ft 465 kts 269°
2026-05-06 11:23 53.13450 -24.04895 36075 ft 465 kts 269°
2026-05-06 11:24 53.13531 -24.15669 36093 ft 465 kts 269°
2026-05-06 11:24 53.13602 -24.26398 36091 ft 466 kts 269°
2026-05-06 11:25 53.13664 -24.37221 36085 ft 467 kts 268°
2026-05-06 11:25 53.13716 -24.48039 36089 ft 467 kts 268°
2026-05-06 11:26 53.13758 -24.58864 36081 ft 468 kts 268°
2026-05-06 11:26 53.13790 -24.69706 36094 ft 468 kts 268°
2026-05-06 11:27 53.13813 -24.80550 36086 ft 468 kts 268°
2026-05-06 11:27 53.13826 -24.91335 36093 ft 469 kts 268°
2026-05-06 11:28 53.13829 -25.02200 36085 ft 469 kts 268°
2026-05-06 11:28 53.13822 -25.13078 36090 ft 469 kts 268°
2026-05-06 11:29 53.13805 -25.23958 36085 ft 469 kts 268°
2026-05-06 11:29 53.13778 -25.34829 36088 ft 470 kts 267°
2026-05-06 11:30 53.13742 -25.45699 36085 ft 470 kts 267°
2026-05-06 11:30 53.13695 -25.56575 36090 ft 469 kts 267°
2026-05-06 11:31 53.13638 -25.67455 36084 ft 469 kts 267°
2026-05-06 11:31 53.13572 -25.78320 36081 ft 469 kts 267°
2026-05-06 11:32 53.13496 -25.89124 36088 ft 469 kts 267°
2026-05-06 11:32 53.13410 -25.99999 36080 ft 470 kts 267°
2026-05-06 11:33 53.13314 -26.10883 36082 ft 470 kts 267°
2026-05-06 11:33 53.13208 -26.21756 36076 ft 470 kts 266°
2026-05-06 11:34 53.13092 -26.32636 36076 ft 470 kts 266°
2026-05-06 11:34 53.12966 -26.43503 36083 ft 470 kts 266°
2026-05-06 11:35 53.12831 -26.54378 36076 ft 470 kts 266°
2026-05-06 11:35 53.12685 -26.65265 36071 ft 470 kts 266°
2026-05-06 11:36 53.12529 -26.76163 36072 ft 470 kts 266°
2026-05-06 11:36 53.12364 -26.86983 36072 ft 470 kts 266°
2026-05-06 11:37 53.12188 -26.97879 36072 ft 470 kts 266°
2026-05-06 11:37 53.12003 -27.08763 36069 ft 470 kts 266°
2026-05-06 11:38 53.11808 -27.19646 36064 ft 470 kts 266°
2026-05-06 11:38 53.11602 -27.30534 36067 ft 470 kts 266°
2026-05-06 11:39 53.11389 -27.41335 36059 ft 470 kts 266°
2026-05-06 11:39 53.11164 -27.52202 36063 ft 470 kts 266°
2026-05-06 11:40 53.10929 -27.63074 36050 ft 470 kts 265°
2026-05-06 11:40 53.10684 -27.73953 36052 ft 470 kts 265°
2026-05-06 11:41 53.10429 -27.84836 36053 ft 470 kts 265°
2026-05-06 11:41 53.10164 -27.95698 36048 ft 469 kts 265°
2026-05-06 11:42 53.09890 -28.06548 36041 ft 469 kts 265°
2026-05-06 11:42 53.09606 -28.17399 36043 ft 469 kts 265°
2026-05-06 11:43 53.09313 -28.28248 36044 ft 469 kts 265°
2026-05-06 11:43 53.09011 -28.39015 36039 ft 469 kts 265°
2026-05-06 11:44 53.08537 -28.55281 36044 ft 469 kts 265°
2026-05-06 11:44 53.08209 -28.66111 36040 ft 469 kts 265°
2026-05-06 11:45 53.07872 -28.76943 36035 ft 469 kts 265°
2026-05-06 11:45 53.07524 -28.87782 36027 ft 469 kts 265°
2026-05-06 11:46 53.07166 -28.98618 36028 ft 469 kts 265°
2026-05-06 11:46 53.06799 -29.09449 36025 ft 469 kts 265°
2026-05-06 11:47 53.06422 -29.20276 36031 ft 469 kts 265°
2026-05-06 11:47 53.06036 -29.31050 36024 ft 469 kts 265°
2026-05-06 11:48 53.05639 -29.41883 36021 ft 470 kts 265°
2026-05-06 11:48 53.05232 -29.52717 36015 ft 469 kts 265°
2026-05-06 11:49 53.04815 -29.63559 36016 ft 469 kts 265°
2026-05-06 11:49 53.04389 -29.74378 36019 ft 469 kts 264°
2026-05-06 11:50 53.03952 -29.85217 36022 ft 470 kts 265°
2026-05-06 11:50 53.03509 -29.96012 36012 ft 472 kts 264°
2026-05-06 11:51 53.03221 -30.06910 36004 ft 471 kts 268°
2026-05-06 11:51 53.03140 -30.17783 36009 ft 470 kts 268°
2026-05-06 11:52 53.03066 -30.28656 36010 ft 470 kts 268°
2026-05-06 11:52 53.02965 -30.39500 36014 ft 469 kts 268°
2026-05-06 11:53 53.02845 -30.50268 36014 ft 469 kts 268°
2026-05-06 11:53 53.02710 -30.61095 36016 ft 468 kts 268°
2026-05-06 11:54 53.02567 -30.71909 36022 ft 468 kts 267°
2026-05-06 11:54 53.02414 -30.82728 36026 ft 468 kts 267°
2026-05-06 11:55 53.02252 -30.93553 36034 ft 468 kts 267°
2026-05-06 11:55 53.02080 -31.04361 36019 ft 468 kts 268°
2026-05-06 11:56 53.01900 -31.15097 36037 ft 467 kts 267°
2026-05-06 11:56 53.01709 -31.25871 36023 ft 467 kts 267°
2026-05-06 11:57 53.01508 -31.36639 36037 ft 466 kts 267°
2026-05-06 11:57 53.01297 -31.47422 36030 ft 467 kts 267°
2026-05-06 11:58 53.01114 -31.56389 36041 ft 467 kts 267°
2026-05-06 11:58 53.00885 -31.67190 36035 ft 468 kts 267°
2026-05-06 11:59 53.00647 -31.77986 36046 ft 468 kts 267°
2026-05-06 11:59 53.00398 -31.88793 36046 ft 468 kts 267°
2026-05-06 12:00 53.00140 -31.99610 36053 ft 468 kts 267°
2026-05-06 12:00 52.99873 -32.10350 36049 ft 469 kts 267°
2026-05-06 12:01 52.99594 -32.21172 36052 ft 469 kts 267°
2026-05-06 12:01 52.99306 -32.31992 36052 ft 469 kts 266°
2026-05-06 12:02 52.99008 -32.42821 36050 ft 469 kts 266°
2026-05-06 12:02 52.98699 -32.53649 36058 ft 469 kts 266°
2026-05-06 12:03 52.98382 -32.64465 36054 ft 469 kts 266°
2026-05-06 12:03 52.98054 -32.75282 36061 ft 469 kts 266°
2026-05-06 12:04 52.97717 -32.86080 36061 ft 469 kts 266°
2026-05-06 12:04 52.97372 -32.96834 36066 ft 469 kts 266°
2026-05-06 12:05 52.97014 -33.07650 36067 ft 470 kts 266°
2026-05-06 12:05 52.96647 -33.18472 36071 ft 470 kts 266°
2026-05-06 12:06 52.96269 -33.29304 36075 ft 471 kts 266°
2026-05-06 12:06 52.95882 -33.40151 36077 ft 471 kts 266°
2026-05-06 12:07 52.95484 -33.50997 36076 ft 471 kts 266°
2026-05-06 12:07 52.95076 -33.61853 36079 ft 472 kts 266°
2026-05-06 12:08 52.94657 -33.72715 36082 ft 472 kts 266°
2026-05-06 12:08 52.94229 -33.83565 36081 ft 472 kts 266°
2026-05-06 12:09 52.93794 -33.94346 36092 ft 471 kts 266°
2026-05-06 12:09 52.93347 -34.05181 36084 ft 471 kts 266°
2026-05-06 12:10 52.92890 -34.16014 36093 ft 471 kts 265°
2026-05-06 12:10 52.92423 -34.26852 36088 ft 471 kts 265°
2026-05-06 12:11 52.91946 -34.37680 36094 ft 471 kts 266°
2026-05-06 12:11 52.91459 -34.48506 36096 ft 471 kts 265°
2026-05-06 12:12 52.90966 -34.59260 36095 ft 471 kts 265°
2026-05-06 12:12 52.90460 -34.70090 36101 ft 471 kts 265°
2026-05-06 12:13 52.89943 -34.80918 36101 ft 471 kts 265°
2026-05-06 12:13 52.89417 -34.91736 36101 ft 472 kts 265°
2026-05-06 12:14 52.88880 -35.02569 36104 ft 471 kts 265°
2026-05-06 12:14 52.88334 -35.13384 36103 ft 471 kts 265°
2026-05-06 12:15 52.87778 -35.24210 36109 ft 471 kts 265°
2026-05-06 12:15 52.87213 -35.35022 36109 ft 471 kts 265°
2026-05-06 12:16 52.86638 -35.45825 36112 ft 471 kts 265°
2026-05-06 12:16 52.86056 -35.56555 36109 ft 470 kts 265°
2026-05-06 12:17 52.85462 -35.67344 36111 ft 470 kts 265°
2026-05-06 12:17 52.84860 -35.78113 36111 ft 469 kts 265°
2026-05-06 12:18 52.84248 -35.88867 36111 ft 469 kts 265°
2026-05-06 12:18 52.83631 -35.99538 36113 ft 469 kts 265°
2026-05-06 12:19 52.83000 -36.10269 36101 ft 469 kts 265°
2026-05-06 12:19 52.82361 -36.20981 36113 ft 468 kts 265°
2026-05-06 12:20 52.81713 -36.31689 36110 ft 468 kts 265°
2026-05-06 12:20 52.81054 -36.42395 36107 ft 468 kts 265°
2026-05-06 12:21 52.80387 -36.53090 36106 ft 467 kts 265°
2026-05-06 12:21 52.79711 -36.63771 36106 ft 468 kts 265°
2026-05-06 12:22 52.79024 -36.74452 36108 ft 467 kts 265°
2026-05-06 12:22 52.78333 -36.85059 36107 ft 467 kts 265°
2026-05-06 12:23 52.77628 -36.95724 36108 ft 466 kts 265°
2026-05-06 12:23 52.76914 -37.06389 36112 ft 466 kts 265°
2026-05-06 12:24 52.76191 -37.17028 36112 ft 466 kts 265°
2026-05-06 12:24 52.75459 -37.27671 36105 ft 466 kts 265°
2026-05-06 12:25 52.74723 -37.38217 36109 ft 465 kts 265°
2026-05-06 12:25 52.73974 -37.48817 36108 ft 464 kts 265°
2026-05-06 12:26 52.73216 -37.59407 36107 ft 464 kts 265°
2026-05-06 12:26 52.72450 -37.69977 36112 ft 464 kts 265°
2026-05-06 12:27 52.71675 -37.80536 36110 ft 464 kts 265°
2026-05-06 12:27 52.70891 -37.91090 36106 ft 463 kts 265°
2026-05-06 12:28 52.70098 -38.01627 36110 ft 462 kts 265°
2026-05-06 12:28 52.69297 -38.12142 36109 ft 462 kts 265°
2026-05-06 12:29 52.68486 -38.22668 36110 ft 462 kts 265°
2026-05-06 12:29 52.67672 -38.33115 36113 ft 462 kts 265°
2026-05-06 12:30 52.66843 -38.43627 36112 ft 462 kts 265°
2026-05-06 12:30 52.66005 -38.54132 36112 ft 462 kts 265°
2026-05-06 12:31 52.65157 -38.64638 36110 ft 463 kts 264°
2026-05-06 12:31 52.64300 -38.75140 36115 ft 463 kts 264°
2026-05-06 12:32 52.63432 -38.85654 36113 ft 463 kts 264°
2026-05-06 12:32 52.62560 -38.96098 36100 ft 463 kts 265°
2026-05-06 12:33 52.61676 -39.06576 36114 ft 462 kts 265°
2026-05-06 12:33 52.60783 -39.17040 36110 ft 461 kts 265°
2026-05-06 12:34 52.59884 -39.27480 36120 ft 461 kts 264°
2026-05-06 12:34 52.58976 -39.37906 36121 ft 460 kts 264°
2026-05-06 12:35 52.58058 -39.48330 36116 ft 460 kts 264°